User: anonymous   Login
Location: Unspecified
(0.0000°N, 0.0000°E)
Time: 06:45:37
(UTC+00:00)
Language:

GEOEYE 1 - Orbit

View from above orbital plane
View from above orbital plane
View from above satellite
View from above satellite

Ground track
Ground track

The orbit data is extracted from the following two-line orbital elements,

1 33331U 08042A   17266.80604777  .00000084  00000-0  25034-4 0  9998
2 33331  98.1018 340.4797 0008956 320.0605  39.9923 14.64168033483534
Epoch (UTC): 23 September 2017 19:20:42
Eccentricity: 0.0008956
inclination: 98.1018°
perigee height: 673 km
apogee height: 686 km
right ascension of ascending node: 340.4797°
argument of perigee: 320.0605°
revolutions per day: 14.64168033
mean anomaly at epoch: 39.9923°
orbit number at epoch: 48353

The dashed part of the orbit path shows where the satellite is in the earth's shadow,  

DLR